Date String (YYYY-MM-DD hh:mm:ss) UTC,Instrument flags,Ambient pressure (hPa),Sample flow (lpm),Bypass flow (lpm),Sample temperature (°C),Ambient temperature (°C),ASC tube jacket temperature (°C),LED temperature (°C),Box temperature (°C),Sample RH (%),Span deviation,Mass concentration (μg/m³),Mass concentration (μg/m³),Mass concentration (μg/m³)
DateTimeUTC,F1_M11,P_M11,Q1_M11,Q2_M11,T1_M11,T2_M11,T3_M11,T4_M11,T5_M11,U1_M11,ZSPAN_M11,X0_M11,X2_M11,X1_M11
2022-11-21 06:00:00,,0829.2,5.00,0.00,22.0,20.4,00.0,31.1,23.7,08.2,0000.0,0009.84,0005.94,0005.69
2022-11-21 06:01:00,,0828.8,4.99,0.00,22.0,20.4,00.0,31.1,23.8,08.2,0000.0,0009.43,0005.75,0005.51
2022-11-21 06:02:00,,0828.7,5.02,0.00,22.0,20.4,00.0,31.1,23.7,08.2,0000.0,0008.79,0005.57,0005.34
2022-11-21 06:03:00,,0828.7,5.01,0.00,22.0,20.4,00.0,31.0,23.6,08.3,0000.0,0008.92,0005.40,0005.17
2022-11-21 06:04:00,,0828.7,4.98,0.00,22.0,20.4,00.0,31.0,23.7,08.3,0000.0,0009.15,0005.31,0005.06
2022-11-21 06:05:00,,0828.7,5.01,0.00,22.1,21.1,00.0,30.9,24.0,08.3,0000.0,0009.13,0005.21,0004.98
2022-11-21 06:06:00,,0828.7,5.00,0.00,22.1,21.8,00.0,30.9,24.1,08.3,0000.0,0009.12,0005.13,0004.90
2022-11-21 06:07:00,,0828.7,5.00,0.00,22.2,21.8,00.0,31.0,24.2,08.3,0000.0,0009.19,0005.02,0004.78
2022-11-21 06:08:00,,0828.7,5.00,0.00,22.2,21.6,00.0,31.0,24.2,08.2,0000.0,0009.62,0004.91,0004.68
2022-11-21 06:09:00,,0828.7,5.01,0.00,22.2,21.4,00.0,31.1,24.2,08.3,0000.0,0009.63,0004.86,0004.62
2022-11-21 06:10:00,,0829.0,4.98,0.00,22.2,21.2,00.0,31.1,24.2,08.4,0000.0,0009.86,0004.92,0004.68
2022-11-21 06:11:00,,0829.1,5.01,0.00,22.2,21.1,00.0,31.1,24.1,08.6,0000.0,0010.04,0005.08,0004.85
2022-11-21 06:12:00,,0828.9,5.01,0.00,22.2,21.0,00.0,31.1,24.1,08.8,0000.0,0010.29,0005.30,0005.06
2022-11-21 06:13:00,,0828.9,4.97,0.00,22.2,20.9,00.0,31.1,24.0,08.8,0000.0,0010.49,0005.51,0005.24
2022-11-21 06:14:00,,0828.7,5.01,0.00,22.2,20.9,00.0,31.1,24.0,08.9,0000.0,0010.04,0005.69,0005.41
2022-11-21 06:15:00,,0828.9,5.02,0.00,22.2,20.8,00.0,31.1,23.9,08.9,0000.0,0010.13,0005.86,0005.58
2022-11-21 06:16:00,,0828.8,4.98,0.00,22.1,20.8,00.0,31.1,23.9,08.8,0000.0,0010.61,0006.02,0005.71
2022-11-21 06:17:00,,0828.7,5.00,0.00,22.1,20.7,00.0,31.1,23.9,08.8,0000.0,0010.67,0006.14,0005.83
2022-11-21 06:18:00,,0829.0,5.01,0.00,22.1,20.7,00.0,31.1,23.8,08.8,0000.0,0010.72,0006.27,0005.98
2022-11-21 06:19:00,,0828.6,4.99,0.00,22.1,20.7,00.0,31.1,23.8,08.9,0000.0,0010.31,0006.47,0006.17
2022-11-21 06:20:00,,0828.7,5.01,0.00,22.1,20.7,00.0,31.1,23.8,08.9,0000.0,0010.52,0006.66,0006.36
2022-11-21 06:21:00,,0828.6,5.01,0.00,22.1,20.6,00.0,31.1,23.8,08.9,0000.0,0010.48,0006.81,0006.50
2022-11-21 06:22:00,,0828.7,4.99,0.00,22.1,20.6,00.0,31.1,23.8,08.9,0000.0,0010.10,0006.94,0006.60
2022-11-21 06:23:00,,0828.9,5.01,0.00,22.0,20.6,00.0,31.1,23.8,08.8,0000.0,0010.13,0006.96,0006.62
2022-11-21 06:24:00,,0829.2,5.00,0.00,22.0,20.5,00.0,31.0,23.6,08.6,0000.0,0010.02,0006.88,0006.57
2022-11-21 06:25:00,,0829.2,5.01,0.00,22.0,20.5,00.0,31.0,23.7,08.5,0000.0,0009.94,0006.80,0006.50
2022-11-21 06:26:00,,0829.1,4.98,0.00,22.0,20.5,00.0,31.0,23.5,08.2,0000.0,0009.72,0006.63,0006.34
2022-11-21 06:27:00,,0829.2,5.00,0.00,21.9,20.5,00.0,31.0,23.5,08.0,0000.0,0009.02,0006.43,0006.14
2022-11-21 06:28:00,,0829.1,5.01,0.00,21.9,20.4,00.0,31.0,23.5,08.0,0000.0,0008.74,0006.15,0005.88
2022-11-21 06:29:00,,0829.1,5.01,0.00,21.9,20.4,00.0,31.0,23.6,07.9,0000.0,0008.46,0005.85,0005.57
2022-11-21 06:30:00,,0829.1,5.00,0.00,21.9,20.7,00.0,31.0,23.7,07.8,0000.0,0008.06,0005.49,0005.22
2022-11-21 06:31:00,,0829.2,5.00,0.00,22.0,21.4,00.0,30.9,24.0,07.7,0000.0,0007.66,0005.14,0004.88
2022-11-21 06:32:00,,0829.3,5.00,0.00,22.1,21.9,00.0,30.9,24.1,07.7,0000.0,0007.22,0004.77,0004.52
2022-11-21 06:33:00,,0828.9,5.00,0.00,22.2,21.6,00.0,31.0,24.2,07.8,0000.0,0006.42,0004.37,0004.14
2022-11-21 06:34:00,,0829.1,5.01,0.00,22.1,21.4,00.0,31.0,24.1,07.8,0000.0,0005.63,0004.01,0003.81
2022-11-21 06:35:00,,0828.8,5.01,0.00,22.2,21.2,00.0,31.0,24.1,07.9,0000.0,0005.15,0003.74,0003.55
2022-11-21 06:36:00,,0828.8,5.01,0.00,22.1,21.1,00.0,31.0,24.0,07.8,0000.0,0004.61,0003.47,0003.29
2022-11-21 06:37:00,,0829.0,4.98,0.00,22.1,20.9,00.0,31.1,24.0,07.9,0000.0,0004.27,0003.29,0003.13
2022-11-21 06:38:00,,0829.2,5.01,0.00,22.1,20.8,00.0,31.1,24.0,07.9,0000.0,0004.03,0003.16,0002.98
2022-11-21 06:39:00,,0829.2,5.01,0.00,22.1,20.7,00.0,31.1,23.9,07.9,0000.0,0004.13,0003.08,0002.86
2022-11-21 06:40:00,,0829.2,4.99,0.00,22.1,20.7,00.0,31.1,23.9,07.9,0000.0,0004.01,0003.02,0002.82
2022-11-21 06:41:00,,0829.2,5.00,0.00,22.1,20.6,00.0,31.0,23.8,08.0,0000.0,0004.09,0003.11,0002.94
2022-11-21 06:42:00,,0829.0,5.01,0.00,22.0,20.6,00.0,31.0,23.8,08.1,0000.0,0004.27,0003.24,0003.14
2022-11-21 06:43:00,,0829.0,5.01,0.00,22.0,20.6,00.0,31.0,23.8,08.1,0000.0,0004.71,0003.40,0003.32
2022-11-21 06:44:00,,0829.2,4.97,0.00,22.0,20.5,00.0,31.0,23.7,08.1,0000.0,0006.18,0003.58,0003.50
2022-11-21 06:45:00,,0829.0,5.01,0.00,22.0,20.5,00.0,31.0,23.7,08.1,0000.0,0006.63,0003.78,0003.69
2022-11-21 06:46:00,,0829.0,5.00,0.00,22.0,20.5,00.0,31.0,23.7,08.1,0000.0,0007.33,0004.00,0003.88
2022-11-21 06:47:00,,0829.2,5.01,0.00,22.0,20.5,00.0,31.0,23.8,08.1,0000.0,0007.89,0004.22,0004.08
2022-11-21 06:48:00,,0829.2,4.99,0.00,21.9,20.5,00.0,31.0,23.7,08.1,0000.0,0008.10,0004.43,0004.26
2022-11-21 06:49:00,,0829.0,5.00,0.00,21.9,20.6,00.0,30.9,23.7,08.1,0000.0,0008.22,0004.60,0004.42
2022-11-21 06:50:00,,0828.7,5.02,0.00,22.0,21.4,00.0,30.9,23.9,08.0,0000.0,0008.38,0004.78,0004.58
2022-11-21 06:51:00,,0828.8,4.98,0.00,22.1,22.0,00.0,30.9,24.1,08.0,0000.0,0008.66,0004.99,0004.77
2022-11-21 06:52:00,,0828.8,5.02,0.00,22.2,21.8,00.0,31.0,24.1,08.2,0000.0,0008.86,0005.17,0004.93
2022-11-21 06:53:00,,0828.8,4.98,0.00,22.2,21.6,00.0,31.0,24.1,08.1,0000.0,0008.90,0005.17,0004.93
2022-11-21 06:54:00,,0828.7,5.02,0.00,22.1,21.4,00.0,31.0,24.1,08.0,0000.0,0009.27,0005.10,0004.86
2022-11-21 06:55:00,,0828.7,5.00,0.00,22.1,21.2,00.0,31.0,24.0,08.2,0000.0,0008.63,0005.15,0004.89
2022-11-21 06:56:00,,0828.7,5.00,0.00,22.1,21.1,00.0,31.1,24.0,08.0,0000.0,0008.73,0005.19,0004.92
2022-11-21 06:57:00,,0828.7,5.02,0.00,22.1,20.9,00.0,31.1,24.0,07.9,0000.0,0008.60,0005.17,0004.93
2022-11-21 06:58:00,,0828.7,4.99,0.00,22.1,20.9,00.0,31.1,24.0,07.8,0000.0,0008.37,0005.13,0004.90
2022-11-21 06:59:00,,0828.8,5.01,0.00,22.1,20.8,00.0,31.1,23.9,07.8,0000.0,0008.33,0005.06,0004.85
